Location: East Guldeford
(50.9500°N, 0.7500°E)
Time: 17:42:39
(UTC+00:00)

Okean 1-7 - Pass Details

Date: 12 May 2021
Orbit: 592 x 617 km, 82.5° (Epoch: 16 June)

Event Time Altitude Azimuth Distance (km) Brightness Sun altitude
Exits shadow 22:43:29 26° 105° (ESE) 1,192 4.2 -19.0°
Maximum altitude 22:44:09 27° 89° (E) 1,158 4.3 -19.0°
Drops below altitude 10° 22:47:47 10° 31° (NNE) 1,948 6.2 -19.2°
Sets 22:50:14 0° 20° (NNE) 2,860 7.4 -19.3°
